Simultaneous Nadir Overpasses (SNOs) Predictions

Prediction of SNOs between METOP-B and NOAA-19 Satellite Orbit:

Table of predicted SNOs for the next 14.0 days since TLE Epoch: 3/22/2025
Index Date (METOP-B) Time (METOP-B) Lat,Lon (METOP-B) SZA (METOP-B ) Date (NOAA-19) Time (NOAA-19) Lat,Lon (NOAA-19) SZA (NOAA-19 ) Distance(km) Time Diff (sec)
1 03/23/2025 23:40:25 80.75,-104.75 85.24 03/23/2025 23:39:27 80.75,-104.83 85.19 1.36 58
2 03/24/2025 00:31:05 -80.74, 62.70 94.77 03/24/2025 00:30:21 -80.75, 62.57 94.81 2.27 44
3 03/24/2025 01:21:46 80.73,-129.84 85.24 03/24/2025 01:21:22 80.73,-129.71 85.24 2.61 24
4 03/24/2025 02:12:26 -80.73, 37.61 94.76 03/24/2025 02:12:16 -80.72, 37.69 94.76 1.60 10
5 03/24/2025 03:03:07 80.72,-154.93 85.25 03/24/2025 03:03:18 80.71,-154.95 85.25 0.38 11
6 03/24/2025 03:53:47 -80.71, 12.52 94.76 03/24/2025 03:54:12 -80.71, 12.45 94.75 1.22 25
7 03/24/2025 04:44:28 80.70, 179.97 85.25 03/24/2025 04:45:14 80.70, 179.82 85.26 2.83 46



Historial Predications of SNOs between METOP-B and NOAA-19
